Regional Weather Roundup
Issued by NWS

Home | Current Version | Previous Version | Text Only | Print | Product List | Glossary Off
Versions: 1 2 3 4 5 6 7 8 9 10 11 12 13 14 15 16 17 18 19 20 21 22 23 24 25 26 27 28 29 30 31 32 33 34 35 36 37 38 39 40 41 42 43 44 45 46 47 48 49 50

000
ASUS43 KDMX 112301
RWRIA

WEATHER ROUNDUP FOR IOWA
NATIONAL WEATHER SERVICE DES MOINES IA
500 PM CST MON DEC 11 2017

NOTE: "FAIR" INDICATES FEW OR NO CLOUDS BELOW 12,000 FEET WITH NO
SIGNIFICANT WEATHER AND/OR OBSTRUCTIONS TO VISIBILITY.

* - THESE STATIONS ARE NOT NWS STATIONS...THUS NOT UNDER NWS
QUALITY CONTROL.  THEY ALSO DO NOT REPORT WEATHER SUCH
AS PRECIPITATION OR FOG.

IAZ001>003-012>014-020>022-031>034-043>046-120000-
   NORTHWEST IOWA

CITY           SKY/WX    TMP DP  RH WIND       PRES   REMARKS
CARROLL *      CLOUDY    34  27  75 N29G40    30.08R WCI  20
CHEROKEE *     CLOUDY    32  24  72 N15G28    30.13R WCI  21
DENISON *      CLOUDY    36  27  69 N20G38    30.12R WCI  25
LE MARS *      PTCLDY    34  25  69 NW21G28   30.16R WCI  22
ORANGE CITY *  MOCLDY    34  27  75 NW20G28   30.14R WCI  22
SHELDON *      MOCLDY    28  23  80 N25G31    30.11R WCI  14
SIOUX CITY     MOCLDY    36  25  64 NW32G39   30.14R WCI  23
SPENCER        CLOUDY    27  20  75 N24G32    30.11R WCI  12
STORM LAKE *   CLOUDY    30  23  74 N23G33    30.10R WCI  17
$$

IAZ055>058-069>071-079>083-090>094-120000-
   SOUTHWEST IOWA

CITY           SKY/WX    TMP DP  RH WIND       PRES   REMARKS
ATLANTIC *     CLOUDY    37  28  70 N28G43    30.08R WCI  25
AUDUBON *      CLOUDY    34  28  80 N18G25    30.10R WCI  23
CLARINDA *     CLOUDY    43  32  65 N23G31      N/A
COUNCIL BLFS * CLOUDY    39  30  70 N20G39    30.12R WCI  30
CRESTON *      CLOUDY    37  28  70 NW28G41   30.05R WCI  25
HARLAN  *      CLOUDY    37  28  70 NW25G37   30.14R WCI  26
LAMONI         CLOUDY    42  32  67 NW26G37   30.00R
RED OAK *      CLOUDY    41  30  65 N18G31    30.10R
SHENANDOAH *   CLOUDY    43  32  65 NW24G33   30.11R
$$

IAZ047>049-059>061-072>074-084-120000-
   CENTRAL IOWA

CITY           SKY/WX    TMP DP  RH WIND       PRES   REMARKS
AMES           CLOUDY    36  31  82 NW26G39   30.00R WCI  24
ANKENY *       CLOUDY    37  32  81 NW20G38   30.01R WCI  27
BOONE *        LGT RAIN  34  30  86 NW24G33   30.00R WCI  21
CHARITON *     CLOUDY    39  32  75 NW24G36   29.97R WCI  28
DES MOINES     CLOUDY    38  30  73 NW21G29   30.01R WCI  28
GRINNELL*      CLOUDY    38  32  79 NW22G30   29.94R WCI  27
KNOXVILLE *    CLOUDY    39  30  70 NW22G31   29.95R WCI  29
MARSHALLTOWN   CLOUDY    37  32  82 NW28G38   29.93R WCI  25
NEWTON *       CLOUDY    37  32  81 NW22G33   29.96R WCI  27
PELLA *        CLOUDY    39  32  75 NW25G36   29.97R WCI  28
PERRY *        CLOUDY    34  29  80 NW24G31   30.04R WCI  22
$$

IAZ004>006-015-016-023>025-035-036-120000-
   NORTH CENTRAL IOWA

CITY           SKY/WX    TMP DP  RH WIND       PRES   REMARKS
ALGONA *       CLOUDY    32  28  86 NW25G38   30.04R WCI  19
CLARION *      CLOUDY    32  32 100 NW28G37   30.00R WCI  18
ESTHERVILLE    CLOUDY    26  22  84 NW32      30.09R WCI   9
FORT DODGE *   CLOUDY    32  26  78 NW10G28   30.04R WCI  24
MASON CITY     CLOUDY    33  26  75 N22       29.98R WCI  21
FOREST CITY *  CLOUDY    34  30  86 NW16G32   29.99R WCI  23
WEBSTER CITY * CLOUDY    34  28  80 NW26G35   30.00R WCI  21
IOWA FALLS *   CLOUDY    37  32  82 NW26G37   29.95R WCI  25
$$

IAZ007>011-017>019-026>030-037>042-050>054-066-120000-
   NORTHEAST IOWA

CITY           SKY/WX    TMP DP  RH WIND       PRES   REMARKS
CEDAR RAPIDS   CLOUDY    36  34  92 NW17G31   29.86R WCI  26
CHARLES CITY * CLOUDY    34  34 100 N22G29    29.92R WCI  22
CLINTON *      LGT SNOW  33  32  96 NW13      29.82R FOG     WCI  24
DECORAH *      CLOUDY    32  30  93 NW24G32   29.87R WCI  19
DUBUQUE        CLOUDY    32  29  88 N16       29.81R WCI  21
MONTICELLO *   CLOUDY    34  34 100 NW8       29.83R WCI  27
OELWEIN *      CLOUDY    34  34 100 N28G39    29.88R WCI  20
WATERLOO       CLOUDY    35  31  85 NW26G37   29.90R WCI  22
$$

IAZ064-065-067-068-078-120000-
   EAST CENTRAL IOWA

CITY           SKY/WX    TMP DP  RH WIND       PRES   REMARKS
DAVENPORT      FLURRIES  34  32  92 NW15      29.84R WCI  24
IOWA CITY      CLOUDY    37  34  89 NW12      29.89R WCI  29
MT. PLEASANT * LGT RAIN  37  35  90 NW9G17    29.88R WCI  31
MUSCATINE *    LGT RAIN  36  34  93 NW15G23   29.87R WCI  26
QUAD CITIES    MIX PCPN  36  33  89 NW16      29.82R FOG     WCI  26
$$

IAZ062-063-075>077-085>089-095>099-120000-
   SOUTHEAST IOWA

CITY           SKY/WX    TMP DP  RH WIND       PRES   REMARKS
BURLINGTON     CLOUDY    39  34  82 NW18G26   29.86R WCI  30
FAIRFIELD *    CLOUDY    39  34  81 NW15      29.89R WCI  31
FORT MADISON * DRIZZLE   39  36  87 NW20G28   29.88R WCI  30
KEOKUK *       LGT RAIN  41  36  81 NW14G23   29.88R
OSKALOOSA *    CLOUDY    39  32  75 NW31      29.93R WCI  27
OTTUMWA        CLOUDY    41  31  67 NW25G41   29.93R
WASHINGTON *   CLOUDY    37  37 100 NW16G24   29.89R WCI  28
$$

ABBREVIATIONS USED IN REMARKS
   TC - TEMPERATURES IN CELSIUS
  WCI - WIND CHILL INDEX
   HX - HEAT INDEX
  VSB - VISIBILITY
$$





USA.gov is the U.S. government's official web portal to all federal, state and local government web resources and services.